Regional Weather Roundup
Issued by NWS Sioux Falls, SD

Home | Current Version | Previous Version | Graphics & Text | Print | Product List | Glossary On
Versions: 1 2 3 4 5 6 7 8 9 10 11 12 13 14 15 16 17 18 19 20 21 22 23 24 25 26 27 28 29 30 31 32 33 34 35 36 37 38 39 40 41 42 43 44 45 46 47 48 49 50
000
ASUS43 KFSD 181310
RWRFSD

WEATHER ROUNDUP FOR SE SOUTH DAKOTA/SW MINNESOTA/NW IOWA
NATIONAL WEATHER SERVICE SIOUX FALLS SD
700 AM CST THU DEC 18 2014

NOTE: "FAIR" INDICATES FEW OR NO CLOUDS BELOW 12,000 FEET WITH NO
SIGNIFICANT WEATHER AND OR OBSTRUCTIONS TO VISIBILITY.


SDZ038>040-050-052>070-181400-
SOUTHEAST SOUTH DAKOTA

CITY           SKY/WX    TMP DP  RH WIND       PRES   REMARKS
CHAMBERLAIN    CLOUDY    20  18  92 SE6       30.14S WCI  12
HURON          CLOUDY    19  15  84 SE6       30.19S WCI  11
MADISON        CLOUDY    16  16 100 SE6       30.19R WCI   7
MITCHELL       CLOUDY    21  17  84 SE7       30.21R WCI  12
SIOUX FALLS    CLOUDY    19  15  84 E6        30.22R WCI  11
WINNER         CLOUDY    25  21  85 SE7       30.10S WCI  17
YANKTON        CLOUDY    21  18  86 E5        30.22S WCI  15
$$

MNZ071-072-080-081-089-090-097-098-181400-
SOUTHWEST MINNESOTA

CITY           SKY/WX    TMP DP  RH WIND       PRES   REMARKS
FAIRMONT       CLOUDY    16  10  79 CALM      30.27R
JACKSON        CLOUDY    18  14  86 SE5       30.25R WCI  11
LUVERNE        CLOUDY    19  16  86 SE7       30.23S WCI  10
MARSHALL       CLOUDY     9   5  85 CALM      30.25S
MONTEVIDEO     PTCLDY     7   5  92 CALM      30.28R
PIPESTONE      CLOUDY    16  12  86 CALM      30.20R
REDWOOD FALLS  PTCLDY     6   2  83 E3        30.28R
TRACY          CLOUDY    12  10  92 CALM      30.25R
WINDOM         CLOUDY    12  10  92 CALM      30.24S
WORTHINGTON    CLOUDY    16  12  86 SE6       30.24R WCI   7
$$

IAZ001>003-012>014-020>022-031-032-NEZ013-014-SDZ071-181400-
NORTHWEST IOWA

CITY           SKY/WX    TMP DP  RH WIND       PRES   REMARKS
CHEROKEE       CLOUDY    20  19  93 E6        30.25S WCI  13
DENISON        CLOUDY    23  21  93 E9        30.22S WCI  13
ESTHERVILLE    CLOUDY    15  13  91 SE6       30.26R WCI   6
LE MARS        CLOUDY    23  21  93 VRB5      30.24S WCI  17
ORANGE CITY    CLOUDY    21  18  86 SE7       30.23R WCI  13
SHELDON        CLOUDY    18  18 100 SE8       30.23R WCI   7
SIOUX CITY     CLOUDY    26  21  81 E6        30.24R WCI  19
SPENCER        CLOUDY    18  14  84 SE8       30.26R WCI   8
STORM LAKE     CLOUDY    19  18  93 E7        30.24S WCI  10
$$

ABBREVIATIONS USED IN REMARKS
   TC - TEMPERATURE IN CELSIUS
  WCI - WIND CHILL INDEX
   HX - HEAT INDEX
  VSB - VISIBILITY




USA.gov is the U.S. government's official web portal to all federal, state and local government web resources and services.